www.pogodaiklimat.ru

Погода и климат >> Архив погоды >> Беларусь >> Ошмяны


ПОГОДА в Ошмянах

  • Прогноз погоды в Ошмянах
  • Монитор погоды в Ошмянах
  • Климат города

АРХИВ ПОГОДЫ в Ошмянах

Время (UTC), дата Ветер
(напр.,м/с)
 
Видим.   Явления Облачность Т
(С)
Тd
(С)
f
(%)
Тe
(С)
Тes
(С)
Комфортность P
(гПа)
Po
(гПа)
Тmin
(С)
Tmax
(С)
R
(мм)
R24
(мм)
S
(см)
00 12.12 С 1 9000 м в посл. час снег [диам. отлож. мокр. снега 8 мм] 10/10 300 м
[St]
-0.4 -0.5 99 -3 -3 1016.8 990.6
03 12.12 С 2 7000 м дымка [диам. отлож. мокр. снега 8 мм] 10/10 300 м
[St]
-0.4 -0.5 99 -4 -4 1017.4 991.2 -0.4 4
06 12.12 С 2 8000 м слабый снег [диам. отлож. мокр. снега 11 мм] 10/10 300 м
[Frnb]
-0.1 -0.1 100 -4 -4 1018.7 992.5 -0.4 2 5
09 12.12 С 3 7000 м слабый снег 10/10 300 м
[Frnb]
+0.2 +0.1 99 -5 -5 1020.1 993.9
12 12.12 С 3 3400 м в посл. час ливневой снег 10/10 300 м
[Cb cap]
+0.3 +0.1 99 -5 -5 1020.2 994.0
15 12.12 С 4 7000 м дымка {ливн. осадки} 9/9 600 м
[Sc]
+0.3 +0.2 99 -5 -5 1020.9 994.7
18 12.12 С 4 10 км {ливн. осадки} 9/9 600 м
[Sc]
+0.1 0.0 99 -6 -6 1022.0 995.7 +0.4 0.3 4
21 12.12 С 5
{11}
27 км 9/9 600 м
[Sc]
-0.3 -1.0 95 -7 -7 1022.2 995.9
00 13.12 С 5 10 км слабый снег 9/9 600 м
[Sc]
-0.5 -1.6 92 -7 -7 1022.2 995.8
03 13.12 С 5 5000 м слабый снег 10/10 300 м
[Frnb]
-0.8 -2.0 92 -7 -7 1022.1 995.7 -0.9 4
06 13.12 СВ 5
{11}
9000 м слабый снег 10/10 300 м
[Frnb]
-0.8 -2.6 88 -7 -7 1021.9 995.5 -1.0 0.1 4
09 13.12 СВ 4 5000 м слабый снег 10/10 300 м
[Frnb]
-1.1 -2.4 91 -7 -7 1022.2 995.8
12 13.12 С 4 35 км {снег} 9/9 600 м
[Sc]
-0.9 -2.6 88 -7 -7 1021.8 995.4
15 13.12 С 3 10 км 10 баллов -1.0 -3.0 86 -6 -6 1023.0 996.2
18 13.12 С 5 11 км в посл. час снег 10/10 300 м
[St]
-1.2 -2.0 94 -8 -8 1023.2 996.7 -0.8 0.0 4
21 13.12 С 4 10 км 10 баллов -1.2 -2.3 92 -7 -7 1024.0 997.2
00 14.12 СВ 4 9000 м слабый снег 10/10 300 м
[Frnb Ns]
-1.2 -2.2 93 -7 -7 1024.2 997.7
03 14.12 СВ 3 9000 м слабый снег 10/10 300 м
[Frnb Ns]
-1.2 -2.1 94 -6 -6 1024.8 998.3 -1.3 5
06 14.12 СВ 3 9000 м слабый снег 10/10 300 м
[Frnb Ns]
-1.2 -2.1 94 -6 -6 1025.8 999.3 -1.3 0.3 5
09 14.12 СВ 4 9000 м слабый снег 10/10 300 м
[Frnb]
-0.8 -2.1 91 -7 -7 1027.2 1000.7
12 14.12 СВ 3 9000 м слабый снег 10/10 300 м
[Frnb]
-0.7 -2.0 91 -6 -6 1027.8 1001.3
15 14.12 СВ 3 9000 м слабый снег 10/10 300 м
[Frnb]
-1.0 -2.0 93 -6 -6 1028.9 1002.3
18 14.12 СВ 3 25 км слабый снег 10/10 300 м
[Frnb]
-1.2 -2.2 93 -6 -6 1029.8 1003.2 -0.7 0.0 5
21 14.12 СВ 3 9000 м слабый снег 10/10 300 м
[Frnb]
-1.5 -2.7 92 -7 -7 1030.7 1004.0
00 15.12 СВ 2 9000 м слабый снег 9/9 600 м
[Sc]
-1.6 -2.5 94 -6 -6 1030.8 1004.1
03 15.12 СВ 3 9000 м слабый снег 9/9 600 м
[Sc]
-1.6 -2.5 94 -7 -7 1031.4 1004.7 -1.8 5
06 15.12 СВ 2 10 км в посл. час снег 9/9 600 м
[Sc]
-1.8 -2.9 92 -6 -6 1032.0 1005.3 -1.8 0.1 5
09 15.12 В 2 30 км 9/9 600 м
[Sc]
-1.5 -3.0 89 -5 -5 1033.0 1006.3
12 15.12 В 3 35 км 9/9 600 м
[Sc]
-1.4 -3.5 86 -6 -6 1032.9 1006.2
15 15.12 В 2 20 км 9/9 600 м
[Sc]
-1.5 -3.2 88 -5 -5 1033.4 1006.7
18 15.12 В 3 10 км 9/9 600 м
[Sc]
-1.7 -3.3 89 -7 -7 1032.9 1006.1 -1.1 5
21 15.12 В 4 10 км 9/9 600 м
[Sc]
-2.0 -3.2 91 -8 -8 1032.6 1005.8
00 16.12 В 4 14 км 9/9 600 м
[Sc]
-2.4 -3.7 91 -8 -8 1031.9 1005.1
03 16.12 В 4 15 км 9/9 600 м
[Sc]
-2.8 -4.0 91 -9 -9 1030.9 1004.1 -2.9 5
06 16.12 В 4 16 км 9/9 600 м
[Sc]
-2.7 -3.9 91 -9 -9 1029.7 1002.9 -2.9 5
09 16.12 ЮВ 6
{11}
15 км 9/9 600 м
[Sc]
-2.1 -3.7 89 -9 -9 1029.4 1002.7
12 16.12 В 6-10
{12}
18 км 9/9 600 м
[Sc]
-2.3 -4.2 87 -10 -10 1027.7 1001.0
15 16.12 ЮВ 7-11
{11}
22 км 9/9 600 м
[Sc]
-2.4 -3.9 89 -10 -10 1026.7 1000.0
18 16.12 ЮВ 6-10
{14}
11 км слабый снег {метель} 10/10 300 м
[Frnb]
-2.4 -4.0 89 -10 -10 1026.3 999.6 -2.0 0.0 5
21 16.12 ЮВ 5
{13}
4300 м слабый снег {метель} 10/10 300 м
[Frnb Ns]
-2.8 -3.7 94 -10 -10 1026.2 999.5
00 17.12 ЮВ 4 9000 м слабый снег {метель} 10/10 300 м
[Frnb Ns]
-3.1 -4.5 90 -9 -9 1026.1 999.4
03 17.12 ЮВ 4
{10}
10 км слабый снег 10/10 300 м
[Frnb Ns]
-3.5 -5.0 89 -10 -10 1025.6 998.9 -3.5 7
06 17.12 ЮВ 4 7000 м слабый снег 10/10 300 м
[Frnb Ns]
-3.8 -5.2 90 -10 -10 1025.8 999.0 -3.8 3 8
09 17.12 ЮВ 3 4800 м слабый снег 10/10 300 м
[Frnb Ns]
-3.8 -4.9 92 -9 -9 1026.5 999.7
12 17.12 ЮВ 4 7000 м слабый снег 10/10 300 м
[Frnb Ns]
-3.7 -5.0 91 -10 -10 1026.0 999.2
15 17.12 ЮВ 3 3500 м снег 10/10 300 м
[Frnb Ns]
-4.3 -5.3 93 -10 -10 1026.7 999.8
18 17.12 В 2 4400 м слабый снег 10/10 300 м
[Frnb Ns]
-4.5 -5.5 93 -9 -9 1027.4 1000.5 -3.6 4
21 17.12 ЮВ 2 2400 м снег 10/10 300 м
[Frnb Ns]
-4.6 -5.5 93 -9 -9 1027.9 1001.0
00 18.12 ЮВ 1 3000 м 10 баллов -4.6 -5.6 93 -7 -7 1028.0 1000.7
03 18.12 ЮВ 2 6000 м 10 баллов -4.8 -5.8 93 -9 -9 1029.0 1001.7 -4.8 17
06 18.12 Ю 3 10 км 10 баллов -5.2 -6.6 90 -11 -11 1029.0 1001.6 -5.2 5 17
09 18.12 Ю 2 9000 м дымка 10 баллов -5.5 -6.7 91 -10 -10 1031.0 1003.6
12 18.12 Ю 1 7000 м 10 баллов -5.3 -6.8 89 -8 -8 1031.0 1003.6
15 18.12 ЮВ 1 6000 м 10 баллов -5.6 -7.0 90 -8 -8 1031.0 1003.5
18 18.12 Ю 1 7000 м 10 баллов -5.7 -6.8 92 -8 -8 1032.0 1004.5 -5.2 0.1 17

 

Местоположение метеостанции Ошмяны (Гродненская область, Беларусь): широта 54.43 долгота 25.93 высота над уровнем моря 211 м.

В архиве по умолчанию представлена погода в Ошмянах за последнюю неделю. Архивные данные за месяц целиком и за предыдущие месяцы, начиная с января 2011 года, Вы можете получить, выбрав интересующий диапазон дат из раскрывающегося списка и нажав кнопку "Ввод!".


*Определитесь, кто Вы:
робот инопланетянин человек

Внимание! Время в таблицах - всемирное. Для получения местного времени необходимо прибавить поправку, которая в Ошмянах равна 3 ч.

Смотрите также архив погоды в соседних городах и на ближайших метеорологических станциях:

Погода в Vilnius (Литва) (47 км)
Погода в Воложине (Минская область, Беларусь) (54 км)
Погода в Вилейке (Минская область, Беларусь) (69 км)
Погода в Лиде (Гродненская область, Беларусь) (71 км)
Погода в Лынтупах (Витебская область, Беларусь) (73 км)
Погода в Нарочи (Минская область, Беларусь) (75 км)
Погода в ?ven?ionys (Литва) (82 км)
Погода в Varena (Литва) (92 км)
Погода в Новогрудке (Гродненская область, Беларусь) (92 км)
Погода в Столбцах (Минская область, Беларусь) (118 км)

Пояснения к столбцам:

Ветер - указаны скорость ветра в м/с - средняя за 10 мин, порывы в срок и между сроками (в фигурных скобках) и направление, откуда дует ветер: С - северный, СВ - северо-восточный, В - восточный, ЮВ - юго-восточный, Ю - южный, ЮЗ - юго-западный, З - западный, СЗ - северо-западный.
Видимость - горизонтальная дальность видимости в метрах или километрах. При видимости от 1 до 10 км при отсутствии осадков обычно наблюдается дымка, при ухудшении видимости до 1 км и менее - туман. В сухую погоду видимость может ухудшаться дымом, пылью или мглою.
Явления - указаны атмосферные явления, наблюдавшиеся в срок или в последний час перед сроком; фигурными скобками обозначены явления, наблюдавшиеся между сроками (за 1-3 часа до срока); квадратными скобками обозначены град или гололедные отложения с указанием их диаметра в мм.
Облачность - указаны через наклонную черту общая и нижняя облачность в баллах и высота нижней границы облаков в метрах; квадратными скобками обозначены формы облаков: Ci - перистые, Cs - перисто-слоистые, Cc - перисто-кучевые, Ac - высококучевые, As - высокослоистые, Sc - слоисто-кучевые, Ns - слоисто-дождевые, Cu - кучевые, Cb - кучево-дождевые. Подробнее классификацию облаков см. в Атласе облаков (PDF).
T - Температура воздуха - температура, измеренная на высоте 2 м над землей.
Td - Температура точки росы - температура, при понижении до которой содержащийся в воздухе водяной пар достигнет насыщения.
f - Относительная влажность воздуха - влажноcть воздуха, измеренная на высоте 2 м над землей.
Te - Эффективная температура - температура, которую ощущает одетый по сезону человек в тени. Характеристика душности погоды. При расчете учитывается влияние влажности воздуха и скорости ветра на теплоощущения человека.
Tes - Эффективная температура на солнце - температура, которую ощущает человек, с поправкой на солнечный нагрев. Характеристика знойности погоды. Зависит от высоты солнца над горизонтом, облачности и скорости ветра. Ночью, в пасмурную погоду, а также при ветре 12 м/с и более поправка равна нулю.
P - Атмосферное давление - приведенное к уровню моря атмосферное давление.
Po - Атмосферное давление - измеренное на уровне метеостанции атмосферное давление.
Tmin - Минимальная температура - минимум температуры воздуха на высоте 2 м над землей.
Tmax - Максимальная температура - максимум температуры воздуха на высоте 2 м над землей.
R - Количество осадков - Количество выпавших осадков за период времени, мм. При наведении курсора мыши на число - период времени, за который выпало указанное количество осадков.
R24 - Количество осадков - Количество выпавших осадков за 24 часа, мм.
S - Снежный покров - Высота снежного покрова, см. При наведении курсора мыши на число - состояние снежного покрова и степень покрытия местности в баллах.